timestamp,wind_dir_avg,wind_spd_avg,wind_spd_max_dir,wind_spd_gust,battery_voltage,lat,long
2024-01-04 00:04:00+00:00,278.0,1.21,268.0,2.03,12.33,47.59359,-54.27349
2024-01-04 00:14:00+00:00,316.0,1.03,289.0,2.17,12.33,47.59359,-54.27349
2024-01-04 00:24:00+00:00,277.0,0.93,277.0,1.98,12.33,47.59359,-54.27349
2024-01-04 00:34:00+00:00,89.0,1.0,97.0,3.79,12.33,47.59359,-54.27349
2024-01-04 00:44:00+00:00,100.0,2.25,95.0,3.88,12.33,47.59359,-54.27349
2024-01-04 00:54:00+00:00,261.0,0.85,94.0,2.62,12.33,47.59359,-54.27349
2024-01-04 01:04:00+00:00,321.0,0.75,303.0,2.18,12.33,47.59359,-54.27349
2024-01-04 01:14:00+00:00,301.0,1.09,292.0,1.98,12.25,47.59359,-54.27349
2024-01-04 01:24:00+00:00,272.0,0.97,278.0,2.03,12.25,47.59359,-54.27349
2024-01-04 01:34:00+00:00,61.0,1.08,86.0,3.89,12.25,47.59359,-54.27349
2024-01-04 01:44:00+00:00,70.0,3.32,71.0,4.12,12.25,47.59359,-54.27349
2024-01-04 01:54:00+00:00,71.0,3.9,70.0,4.26,12.25,47.59359,-54.27349
2024-01-04 02:04:00+00:00,89.0,0.61,109.0,4.19,12.25,47.59359,-54.27349
2024-01-04 02:14:00+00:00,66.0,1.85,72.0,3.74,12.25,47.59359,-54.27349
2024-01-04 02:24:00+00:00,89.0,0.92,82.0,4.19,12.25,47.59359,-54.27349
2024-01-04 02:34:00+00:00,274.0,0.76,282.0,2.1,12.25,47.59359,-54.27349
2024-01-04 02:44:00+00:00,263.0,0.76,98.0,2.71,12.25,47.59359,-54.27349
2024-01-04 02:54:00+00:00,71.0,3.82,68.0,4.87,12.25,47.59359,-54.27349
2024-01-04 03:04:00+00:00,66.0,5.09,64.0,5.79,12.25,47.59359,-54.27349
2024-01-04 03:14:01+00:00,65.0,4.38,54.0,4.96,12.25,47.59359,-54.27349
2024-01-04 03:24:01+00:00,57.0,5.46,63.0,6.19,12.25,47.59359,-54.27349
2024-01-04 03:34:01+00:00,63.0,5.23,70.0,6.17,12.25,47.59359,-54.27349
2024-01-04 03:44:01+00:00,57.0,6.02,64.0,7.39,12.25,47.59359,-54.27349
2024-01-04 03:54:01+00:00,61.0,5.38,67.0,6.33,12.25,47.59359,-54.27349
2024-01-04 04:04:01+00:00,60.0,5.39,61.0,6.46,12.25,47.59359,-54.27349
2024-01-04 04:14:00+00:00,67.0,5.29,62.0,5.88,12.25,47.59359,-54.27349
2024-01-04 04:24:00+00:00,73.0,5.83,78.0,8.36,12.25,47.59359,-54.27349
2024-01-04 04:34:00+00:00,61.0,5.51,66.0,6.39,12.25,47.59359,-54.27349
2024-01-04 04:44:00+00:00,45.0,6.96,47.0,7.79,12.25,47.59359,-54.27349
2024-01-04 04:54:00+00:00,47.0,6.41,48.0,7.27,12.25,47.59359,-54.27349
2024-01-04 05:04:00+00:00,38.0,6.58,35.0,7.36,12.25,47.59359,-54.27349
2024-01-04 05:14:01+00:00,47.0,7.36,59.0,9.44,12.17,47.59359,-54.27349
2024-01-04 05:24:01+00:00,50.0,6.88,58.0,9.48,12.17,47.59359,-54.27349
2024-01-04 05:34:01+00:00,55.0,7.72,56.0,10.24,12.17,47.59359,-54.27349
2024-01-04 05:44:01+00:00,69.0,7.53,74.0,10.13,12.17,47.59359,-54.27349
2024-01-04 05:54:01+00:00,57.0,6.98,63.0,8.88,12.17,47.59359,-54.27349
2024-01-04 06:04:01+00:00,55.0,6.05,61.0,7.02,12.17,47.59359,-54.27349
2024-01-04 06:14:00+00:00,49.0,8.97,55.0,10.79,12.17,47.59359,-54.27349
2024-01-04 06:24:00+00:00,43.0,7.85,53.0,9.41,12.17,47.59359,-54.27349
2024-01-04 06:34:00+00:00,51.0,7.7,53.0,9.85,12.17,47.59359,-54.27349
2024-01-04 06:44:00+00:00,45.0,8.67,41.0,10.84,12.17,47.59359,-54.27349
2024-01-04 06:54:00+00:00,49.0,9.15,43.0,10.46,12.17,47.59359,-54.27349
2024-01-04 07:04:00+00:00,39.0,9.56,51.0,10.99,12.17,47.59359,-54.27349
2024-01-04 07:14:00+00:00,53.0,8.16,56.0,9.91,12.17,47.59359,-54.27349
2024-01-04 07:24:00+00:00,55.0,8.12,60.0,9.59,12.17,47.59359,-54.27349
2024-01-04 07:34:00+00:00,38.0,8.58,37.0,10.31,12.17,47.59359,-54.27349
2024-01-04 07:44:00+00:00,36.0,7.98,54.0,9.94,12.17,47.59359,-54.27349
2024-01-04 07:54:00+00:00,37.0,8.56,43.0,10.6,12.17,47.59359,-54.27349
2024-01-04 08:04:00+00:00,40.0,8.06,56.0,10.63,12.17,47.59359,-54.27349
2024-01-04 08:14:00+00:00,34.0,9.06,47.0,10.23,12.17,47.59359,-54.27349
2024-01-04 08:24:00+00:00,35.0,9.36,35.0,10.9,12.17,47.59359,-54.27349
2024-01-04 08:34:00+00:00,40.0,9.1,36.0,10.73,12.17,47.59359,-54.27349
2024-01-04 08:44:00+00:00,47.0,8.7,53.0,10.19,12.17,47.59359,-54.27349
2024-01-04 08:54:00+00:00,40.0,9.62,33.0,11.99,12.17,47.59359,-54.27349
2024-01-04 09:04:00+00:00,44.0,9.51,44.0,10.72,12.17,47.59359,-54.27349
2024-01-04 09:14:00+00:00,45.0,9.29,37.0,10.96,12.09,47.59359,-54.27349
2024-01-04 09:24:00+00:00,48.0,9.29,54.0,10.63,12.09,47.59359,-54.27349
2024-01-04 09:34:00+00:00,45.0,9.89,48.0,11.52,12.09,47.59359,-54.27349
2024-01-04 09:44:00+00:00,47.0,9.86,47.0,11.34,12.09,47.59359,-54.27349
2024-01-04 09:54:00+00:00,37.0,10.06,36.0,12.09,12.09,47.59359,-54.27349
2024-01-04 10:04:00+00:00,46.0,9.56,51.0,10.93,12.09,47.59359,-54.27349
2024-01-04 10:14:00+00:00,34.0,9.41,33.0,10.6,12.09,47.59359,-54.27349
2024-01-04 10:24:00+00:00,44.0,9.53,38.0,10.73,12.09,47.59359,-54.27349
2024-01-04 10:34:00+00:00,41.0,10.18,45.0,11.92,12.09,47.59359,-54.27349
2024-01-04 10:44:00+00:00,41.0,10.06,49.0,11.04,12.09,47.59359,-54.27349
2024-01-04 10:54:00+00:00,46.0,9.97,49.0,11.38,12.09,47.59359,-54.27349
2024-01-04 11:04:00+00:00,50.0,9.67,55.0,10.85,12.09,47.59359,-54.27349
2024-01-04 11:14:00+00:00,44.0,10.24,50.0,11.76,12.09,47.59359,-54.27349
2024-01-04 11:24:00+00:00,44.0,9.48,46.0,10.54,12.09,47.59359,-54.27349
2024-01-04 11:34:00+00:00,43.0,9.53,38.0,11.05,12.09,47.59359,-54.27349
2024-01-04 11:44:00+00:00,45.0,10.35,50.0,11.42,12.09,47.59359,-54.27349
2024-01-04 11:54:00+00:00,32.0,9.87,34.0,11.06,12.09,47.59359,-54.27349
2024-01-04 12:04:00+00:00,26.0,8.32,23.0,9.55,12.09,47.59359,-54.27349
2024-01-04 12:14:00+00:00,33.0,8.55,34.0,9.85,12.09,47.59359,-54.27349
2024-01-04 12:24:00+00:00,33.0,9.23,29.0,10.9,12.09,47.59359,-54.27349
2024-01-04 12:34:00+00:00,36.0,10.2,29.0,12.35,12.09,47.59359,-54.27349
2024-01-04 12:44:00+00:00,38.0,10.0,36.0,11.26,12.09,47.59359,-54.27349
2024-01-04 12:54:00+00:00,35.0,9.82,32.0,11.4,12.09,47.59359,-54.27349
2024-01-04 13:04:00+00:00,33.0,9.13,46.0,11.07,12.09,47.59359,-54.27349
2024-01-04 13:14:00+00:00,30.0,10.26,30.0,11.51,12.17,47.59359,-54.27349
2024-01-04 13:24:00+00:00,30.0,9.88,30.0,11.27,12.17,47.59359,-54.27349
2024-01-04 13:34:00+00:00,29.0,10.41,31.0,11.13,12.17,47.59359,-54.27349
2024-01-04 13:44:00+00:00,41.0,10.63,47.0,11.98,12.17,47.59359,-54.27349
2024-01-04 13:54:00+00:00,36.0,10.56,44.0,11.84,12.17,47.59359,-54.27349
2024-01-04 14:04:00+00:00,48.0,9.26,50.0,10.41,12.17,47.59359,-54.27349
2024-01-04 14:14:00+00:00,45.0,10.73,49.0,12.21,12.81,47.59359,-54.27349
2024-01-04 14:24:00+00:00,46.0,10.34,49.0,11.76,12.81,47.59359,-54.27349
2024-01-04 14:34:00+00:00,49.0,10.07,54.0,12.78,12.81,47.59359,-54.27349
2024-01-04 14:44:00+00:00,42.0,10.07,49.0,11.76,12.81,47.59359,-54.27349
2024-01-04 14:54:00+00:00,35.0,10.54,31.0,11.79,12.81,47.59359,-54.27349
2024-01-04 15:04:00+00:00,40.0,9.92,48.0,11.42,12.81,47.59359,-54.27349
2024-01-04 15:14:00+00:00,34.0,9.82,33.0,11.01,13.29,47.59359,-54.27349
2024-01-04 15:24:00+00:00,45.0,9.49,46.0,10.8,13.29,47.59359,-54.27349
2024-01-04 15:34:00+00:00,45.0,7.94,45.0,8.78,13.29,47.59359,-54.27349
2024-01-04 15:44:00+00:00,55.0,9.97,56.0,10.94,13.29,47.59359,-54.27349
2024-01-04 15:54:00+00:00,35.0,9.07,32.0,10.37,13.29,47.59359,-54.27349
2024-01-04 16:04:00+00:00,44.0,9.4,44.0,10.54,13.29,47.59359,-54.27349
2024-01-04 16:14:00+00:00,50.0,8.84,52.0,10.62,13.29,47.59359,-54.27349
2024-01-04 16:24:00+00:00,41.0,8.3,52.0,10.09,13.29,47.59359,-54.27349
2024-01-04 16:34:00+00:00,51.0,8.07,49.0,9.98,13.29,47.59359,-54.27349
2024-01-04 16:44:00+00:00,45.0,7.84,56.0,10.22,13.29,47.59359,-54.27349
2024-01-04 16:54:00+00:00,34.0,9.04,41.0,10.66,13.29,47.59359,-54.27349
2024-01-04 17:04:00+00:00,25.0,8.73,20.0,9.85,13.29,47.59359,-54.27349
2024-01-04 17:14:00+00:00,41.0,6.81,46.0,9.04,13.29,47.59359,-54.27349
2024-01-04 17:24:00+00:00,39.0,8.52,53.0,10.46,13.29,47.59359,-54.27349
2024-01-04 17:34:00+00:00,25.0,8.73,20.0,9.63,13.29,47.59359,-54.27349
2024-01-04 17:44:00+00:00,23.0,9.08,26.0,10.61,13.29,47.59359,-54.27349
2024-01-04 17:54:00+00:00,18.0,9.19,20.0,10.43,13.29,47.59359,-54.27349
2024-01-04 18:04:00+00:00,17.0,8.73,19.0,9.86,13.29,47.59359,-54.27349
2024-01-04 18:14:00+00:00,48.0,9.62,54.0,10.99,13.21,47.59359,-54.27349
2024-01-04 18:24:00+00:00,27.0,9.47,32.0,10.55,13.21,47.59359,-54.27349
2024-01-04 18:34:00+00:00,41.0,9.12,49.0,10.73,13.21,47.59359,-54.27349
2024-01-04 18:44:00+00:00,47.0,9.74,44.0,10.91,13.21,47.59359,-54.27349
2024-01-04 18:54:00+00:00,25.0,9.08,25.0,9.7,13.21,47.59359,-54.27349
2024-01-04 19:04:00+00:00,44.0,8.25,55.0,10.98,13.21,47.59359,-54.27349
2024-01-04 19:14:00+00:00,45.0,10.08,52.0,11.36,12.81,47.59359,-54.27349
2024-01-04 19:24:00+00:00,36.0,10.37,44.0,12.39,12.81,47.59359,-54.27349
2024-01-04 19:34:00+00:00,25.0,9.65,21.0,10.65,12.81,47.59359,-54.27349
2024-01-04 19:44:00+00:00,44.0,11.26,46.0,12.27,12.81,47.59359,-54.27349
2024-01-04 19:54:00+00:00,40.0,9.01,55.0,10.87,12.81,47.59359,-54.27349
2024-01-04 20:04:00+00:00,19.0,9.44,20.0,10.38,12.81,47.59359,-54.27349
2024-01-04 20:14:00+00:00,27.0,9.91,26.0,11.13,12.41,47.59359,-54.27349
2024-01-04 20:24:00+00:00,29.0,9.86,35.0,10.84,12.41,47.59359,-54.27349
2024-01-04 20:34:00+00:00,30.0,8.71,28.0,11.23,12.41,47.59359,-54.27349
2024-01-04 20:44:00+00:00,20.0,9.58,17.0,10.76,12.41,47.59359,-54.27349
2024-01-04 20:54:00+00:00,20.0,9.26,23.0,11.13,12.41,47.59359,-54.27349
2024-01-04 21:04:00+00:00,14.0,9.1,16.0,10.86,12.41,47.59359,-54.27349
2024-01-04 21:14:00+00:00,22.0,8.48,19.0,11.19,12.41,47.59359,-54.27349
2024-01-04 21:24:00+00:00,21.0,8.85,26.0,10.32,12.41,47.59359,-54.27349
2024-01-04 21:34:00+00:00,21.0,8.6,21.0,10.23,12.41,47.59359,-54.27349
2024-01-04 21:44:00+00:00,27.0,7.38,30.0,8.43,12.41,47.59359,-54.27349
2024-01-04 21:54:00+00:00,5.0,7.06,6.0,8.44,12.41,47.59359,-54.27349
2024-01-04 22:04:00+00:00,8.0,7.49,18.0,9.0,12.41,47.59359,-54.27349
2024-01-04 22:14:00+00:00,359.0,7.14,359.0,8.54,12.33,47.59359,-54.27349
2024-01-04 22:24:00+00:00,6.0,6.84,8.0,7.99,12.33,47.59359,-54.27349
2024-01-04 22:34:00+00:00,6.0,6.39,8.0,7.43,12.33,47.59359,-54.27349
2024-01-04 22:44:00+00:00,7.0,6.38,5.0,8.12,12.33,47.59359,-54.27349
2024-01-04 22:54:00+00:00,3.0,7.29,4.0,8.24,12.33,47.59359,-54.27349
2024-01-04 23:04:00+00:00,13.0,6.62,13.0,7.45,12.33,47.59359,-54.27349
2024-01-04 23:14:00+00:00,21.0,5.75,30.0,6.42,12.25,47.59359,-54.27349
2024-01-04 23:24:00+00:00,3.0,7.07,2.0,8.68,12.25,47.59359,-54.27349
2024-01-04 23:34:00+00:00,1.0,6.05,5.0,7.33,12.25,47.59359,-54.27349
2024-01-04 23:44:00+00:00,354.0,6.52,353.0,7.25,12.25,47.59359,-54.27349
2024-01-04 23:54:00+00:00,1.0,6.04,2.0,6.92,12.25,47.59359,-54.27349
